Location: Gajan
(43.0218°N, 1.1244°E)
Time: 01:47:08
(UTC+00:00)

Genesis I - Pass Details

Date: 22 April 2021
Orbit: 482 x 537 km, 64.5° (Epoch: 15 May)

Event Time Altitude Azimuth Distance (km) Brightness Sun altitude
Rises 20:45:44 0° 324° (NW) 2,677 8.3 -19.8°
Reaches altitude 10° 20:47:56 10° 322° (NW) 1,789 7.1 -20.1°
Maximum altitude 20:51:56 73° 238° (WSW) 564 3.3 -20.7°
Enters shadow 20:52:33 59° 179° (S) 621 3.3 -20.7°
